Time,TemperatureF,DewpointF,PressureIn,WindDirection,WindDirectionDegrees,WindSpeedMPH,WindSpeedGustMPH,Humidity,HourlyPrecipIn,Conditions,Clouds,dailyrainin,SoftwareType,DateUTC
2013-10-28 00:03:00,33.2,26.5,30.09,South,182,0.0,0.0,76,0.00,,,0.00,Wunderground v.1.15,2013-10-28 05:03:00,
2013-10-28 00:13:00,33.2,26.8,30.09,South,182,0.0,0.0,77,0.00,,,0.00,Wunderground v.1.15,2013-10-28 05:13:00,
2013-10-28 00:23:00,33.5,26.7,30.09,South,182,0.0,0.0,76,0.00,,,0.00,Wunderground v.1.15,2013-10-28 05:23:00,
2013-10-28 00:33:00,34.1,27.6,30.10,South,182,0.0,0.0,77,0.00,,,0.00,Wunderground v.1.15,2013-10-28 05:33:00,
2013-10-28 00:43:00,34.4,27.9,30.10,South,182,0.0,0.0,77,0.00,,,0.00,Wunderground v.1.15,2013-10-28 05:43:00,
2013-10-28 00:53:00,34.4,27.9,30.10,South,182,0.0,0.0,77,0.00,,,0.00,Wunderground v.1.15,2013-10-28 05:53:00,
2013-10-28 01:03:00,34.2,27.7,30.10,South,182,0.0,0.0,77,0.00,,,0.00,Wunderground v.1.15,2013-10-28 06:03:00,
2013-10-28 01:13:00,34.1,27.6,30.11,South,182,0.0,0.0,77,0.00,,,0.00,Wunderground v.1.15,2013-10-28 06:13:00,
2013-10-28 01:23:00,34.2,27.7,30.10,South,182,0.0,0.0,77,0.00,,,0.00,Wunderground v.1.15,2013-10-28 06:23:00,
2013-10-28 01:33:00,34.4,27.9,30.11,South,182,0.0,0.0,77,0.00,,,0.00,Wunderground v.1.15,2013-10-28 06:33:00,
2013-10-28 01:43:00,34.2,27.7,30.11,South,182,0.0,0.0,77,0.00,,,0.00,Wunderground v.1.15,2013-10-28 06:43:00,
2013-10-28 01:53:00,34.1,28.0,30.11,South,182,0.0,0.0,78,0.00,,,0.00,Wunderground v.1.15,2013-10-28 06:53:00,
2013-10-28 02:03:00,34.2,28.1,30.11,South,182,0.0,0.0,78,0.00,,,0.00,Wunderground v.1.15,2013-10-28 07:03:00,
2013-10-28 02:13:00,34.5,28.3,30.11,South,182,0.0,0.0,78,0.00,,,0.00,Wunderground v.1.15,2013-10-28 07:13:00,
2013-10-28 02:23:00,34.7,28.2,30.11,South,182,0.0,0.0,77,0.00,,,0.00,Wunderground v.1.15,2013-10-28 07:23:00,
2013-10-28 02:33:00,34.7,27.9,30.11,South,182,0.0,0.0,76,0.00,,,0.00,Wunderground v.1.15,2013-10-28 07:33:00,
2013-10-28 02:43:00,34.8,27.7,30.11,South,182,0.0,0.0,75,0.00,,,0.00,Wunderground v.1.15,2013-10-28 07:43:00,
2013-10-28 02:53:00,34.8,27.7,30.11,South,182,0.0,0.0,75,0.00,,,0.00,Wunderground v.1.15,2013-10-28 07:53:00,
2013-10-28 03:03:00,34.7,27.6,30.11,South,182,0.0,0.0,75,0.00,,,0.00,Wunderground v.1.15,2013-10-28 08:03:00,
2013-10-28 03:13:00,34.5,27.4,30.11,South,182,0.0,0.0,75,0.00,,,0.00,Wunderground v.1.15,2013-10-28 08:13:00,
2013-10-28 03:23:00,34.7,27.9,30.12,South,182,0.0,0.0,76,0.00,,,0.00,Wunderground v.1.15,2013-10-28 08:23:00,
2013-10-28 03:33:00,34.7,27.9,30.12,South,182,0.0,0.0,76,0.00,,,0.00,Wunderground v.1.15,2013-10-28 08:33:00,
2013-10-28 03:43:00,34.5,27.7,30.12,South,182,0.0,0.0,76,0.00,,,0.00,Wunderground v.1.15,2013-10-28 08:43:00,
2013-10-28 03:53:00,33.9,26.8,30.13,South,182,0.0,0.0,75,0.00,,,0.00,Wunderground v.1.15,2013-10-28 08:53:00,
2013-10-28 04:03:00,33.3,26.9,30.13,South,182,0.0,0.0,77,0.00,,,0.00,Wunderground v.1.15,2013-10-28 09:03:00,
2013-10-28 04:13:00,33.0,26.9,30.13,South,182,0.0,0.0,78,0.00,,,0.00,Wunderground v.1.15,2013-10-28 09:13:00,
2013-10-28 04:23:00,32.9,26.8,30.14,South,182,0.0,0.0,78,0.00,,,0.00,Wunderground v.1.15,2013-10-28 09:23:00,
2013-10-28 04:33:00,33.2,27.4,30.14,South,182,0.0,0.0,79,0.00,,,0.00,Wunderground v.1.15,2013-10-28 09:33:00,
2013-10-28 04:43:00,33.5,27.7,30.14,South,182,0.0,0.0,79,0.00,,,0.00,Wunderground v.1.15,2013-10-28 09:43:00,
2013-10-28 04:53:00,33.6,27.8,30.15,South,182,0.0,0.0,79,0.00,,,0.00,Wunderground v.1.15,2013-10-28 09:53:00,
2013-10-28 05:03:00,33.6,27.8,30.15,South,182,0.0,0.0,79,0.00,,,0.00,Wunderground v.1.15,2013-10-28 10:03:00,
2013-10-28 05:13:00,33.6,27.8,30.16,South,182,0.0,0.0,79,0.00,,,0.00,Wunderground v.1.15,2013-10-28 10:13:00,
2013-10-28 05:23:00,33.5,27.7,30.17,South,182,0.0,0.0,79,0.00,,,0.00,Wunderground v.1.15,2013-10-28 10:23:00,
2013-10-28 05:33:00,33.3,27.5,30.17,South,182,0.0,0.0,79,0.00,,,0.00,Wunderground v.1.15,2013-10-28 10:33:00,
2013-10-28 05:43:00,33.3,27.5,30.17,South,182,0.0,0.0,79,0.00,,,0.00,Wunderground v.1.15,2013-10-28 10:43:00,
2013-10-28 05:53:00,33.3,27.8,30.17,South,182,0.0,0.0,80,0.00,,,0.00,Wunderground v.1.15,2013-10-28 10:53:00,
2013-10-28 06:03:00,33.6,28.1,30.17,South,182,0.0,0.0,80,0.00,,,0.00,Wunderground v.1.15,2013-10-28 11:03:00,
2013-10-28 06:13:00,33.9,28.1,30.18,South,182,0.0,0.0,79,0.00,,,0.00,Wunderground v.1.15,2013-10-28 11:13:00,
2013-10-28 06:23:00,33.9,28.1,30.19,South,182,0.0,0.0,79,0.00,,,0.00,Wunderground v.1.15,2013-10-28 11:23:00,
2013-10-28 06:33:00,33.9,28.1,30.19,South,182,0.0,0.0,79,0.00,,,0.00,Wunderground v.1.15,2013-10-28 11:33:00,
2013-10-28 06:43:00,34.1,28.3,30.19,South,182,0.0,0.0,79,0.00,,,0.00,Wunderground v.1.15,2013-10-28 11:43:00,
2013-10-28 06:53:00,34.4,28.2,30.19,South,182,0.0,0.0,78,0.00,,,0.00,Wunderground v.1.15,2013-10-28 11:53:00,
2013-10-28 07:03:00,34.7,28.5,30.20,South,182,0.0,0.0,78,0.00,,,0.00,Wunderground v.1.15,2013-10-28 12:03:00,
2013-10-28 07:13:00,34.8,28.3,30.20,South,182,0.0,0.0,77,0.00,,,0.00,Wunderground v.1.15,2013-10-28 12:13:00,
2013-10-28 07:23:00,34.8,28.3,30.21,South,182,0.0,0.0,77,0.00,,,0.00,Wunderground v.1.15,2013-10-28 12:23:00,
2013-10-28 07:33:00,34.8,28.0,30.22,South,182,0.0,0.0,76,0.00,,,0.00,Wunderground v.1.15,2013-10-28 12:33:00,
2013-10-28 07:43:00,34.8,28.0,30.22,South,182,0.0,0.0,76,0.00,,,0.00,Wunderground v.1.15,2013-10-28 12:43:00,
2013-10-28 07:53:00,34.9,28.1,30.23,South,182,0.0,0.0,76,0.00,,,0.00,Wunderground v.1.15,2013-10-28 12:53:00,
2013-10-28 08:03:00,35.2,28.7,30.23,South,182,0.0,0.0,77,0.00,,,0.00,Wunderground v.1.15,2013-10-28 13:03:00,
2013-10-28 08:13:00,36.1,29.6,30.23,South,182,0.0,0.0,77,0.00,,,0.00,Wunderground v.1.15,2013-10-28 13:13:00,
2013-10-28 08:23:00,37.3,30.4,30.24,South,182,0.0,0.0,76,0.00,,,0.00,Wunderground v.1.15,2013-10-28 13:23:00,
2013-10-28 08:33:00,38.6,31.7,30.24,South,182,0.0,0.0,76,0.00,,,0.00,Wunderground v.1.15,2013-10-28 13:33:00,
2013-10-28 08:43:00,39.8,32.8,30.24,South,182,0.0,0.0,76,0.00,,,0.00,Wunderground v.1.15,2013-10-28 13:43:00,
2013-10-28 08:53:00,40.9,33.2,30.25,South,182,0.0,0.0,74,0.00,,,0.00,Wunderground v.1.15,2013-10-28 13:53:00,
2013-10-28 09:03:00,42.3,33.6,30.24,South,182,0.0,0.0,71,0.00,,,0.00,Wunderground v.1.15,2013-10-28 14:03:00,
2013-10-28 09:13:00,43.5,34.0,30.24,South,182,0.0,0.0,69,0.00,,,0.00,Wunderground v.1.15,2013-10-28 14:13:00,
2013-10-28 09:23:00,44.6,34.3,30.25,South,182,0.0,0.0,67,0.00,,,0.00,Wunderground v.1.15,2013-10-28 14:23:00,
2013-10-28 09:33:00,46.2,35.1,30.25,South,182,0.0,0.0,65,0.00,,,0.00,Wunderground v.1.15,2013-10-28 14:33:00,
2013-10-28 09:43:00,48.0,35.6,30.25,South,182,0.0,0.0,62,0.00,,,0.00,Wunderground v.1.15,2013-10-28 14:43:00,
2013-10-28 09:53:00,49.4,34.3,30.25,South,182,0.0,0.0,56,0.00,,,0.00,Wunderground v.1.15,2013-10-28 14:53:00,
2013-10-28 10:03:00,51.1,34.1,30.25,South,182,0.0,0.0,52,0.00,,,0.00,Wunderground v.1.15,2013-10-28 15:03:00,
2013-10-28 10:13:00,51.9,33.8,30.25,South,182,0.0,0.0,50,0.00,,,0.00,Wunderground v.1.15,2013-10-28 15:13:00,
2013-10-28 10:23:00,52.8,33.6,30.25,South,182,0.0,0.0,48,0.00,,,0.00,Wunderground v.1.15,2013-10-28 15:23:00,
2013-10-28 10:33:00,54.0,32.6,30.25,South,182,0.0,0.0,44,0.00,,,0.00,Wunderground v.1.15,2013-10-28 15:33:00,
2013-10-28 10:43:00,55.5,33.3,30.26,South,181,0.0,0.0,43,0.00,,,0.00,Wunderground v.1.15,2013-10-28 15:43:00,
2013-10-28 10:53:00,57.1,32.4,30.26,South,181,0.0,0.0,39,0.00,,,0.00,Wunderground v.1.15,2013-10-28 15:53:00,
2013-10-28 11:03:00,60.0,32.2,30.26,SE,129,0.0,0.0,35,0.00,,,0.00,Wunderground v.1.15,2013-10-28 16:03:00,
2013-10-28 11:13:00,62.1,31.1,30.25,ESE,119,0.0,0.0,31,0.00,,,0.00,Wunderground v.1.15,2013-10-28 16:13:00,
2013-10-28 11:23:00,63.3,32.9,30.25,ESE,117,0.0,0.0,32,0.00,,,0.00,Wunderground v.1.15,2013-10-28 16:23:00,
2013-10-28 11:33:00,63.6,31.6,30.25,ESE,117,0.0,0.0,30,0.00,,,0.00,Wunderground v.1.15,2013-10-28 16:33:00,
2013-10-28 11:43:00,64.4,29.7,30.25,ESE,109,0.0,0.0,27,0.00,,,0.00,Wunderground v.1.15,2013-10-28 16:43:00,
2013-10-28 11:53:00,65.1,30.3,30.25,ESE,109,0.0,0.0,27,0.00,,,0.00,Wunderground v.1.15,2013-10-28 16:53:00,
2013-10-28 12:03:00,65.2,31.2,30.25,ESE,108,0.0,0.0,28,0.00,,,0.00,Wunderground v.1.15,2013-10-28 17:03:00,
2013-10-28 12:13:00,64.1,32.0,30.25,ESE,102,0.0,0.0,30,0.00,,,0.00,Wunderground v.1.15,2013-10-28 17:13:00,
2013-10-28 12:23:00,64.3,31.3,30.25,ENE,64,0.0,0.0,29,0.00,,,0.00,Wunderground v.1.15,2013-10-28 17:23:00,
2013-10-28 12:33:00,65.1,32.9,30.25,ENE,65,0.0,0.0,30,0.00,,,0.00,Wunderground v.1.15,2013-10-28 17:33:00,
2013-10-28 12:43:00,65.9,30.0,30.24,East,81,0.0,0.0,26,0.00,,,0.00,Wunderground v.1.15,2013-10-28 17:43:00,
2013-10-28 12:53:00,67.0,27.9,30.24,East,87,0.0,0.0,23,0.00,,,0.00,Wunderground v.1.15,2013-10-28 17:53:00,
2013-10-28 13:03:00,67.3,27.1,30.24,ESE,105,0.0,0.0,22,0.00,,,0.00,Wunderground v.1.15,2013-10-28 18:03:00,
2013-10-28 13:13:00,67.5,26.2,30.23,South,189,0.0,0.0,21,0.00,,,0.00,Wunderground v.1.15,2013-10-28 18:13:00,
2013-10-28 13:23:00,68.0,25.4,30.23,ESE,108,0.0,0.0,20,0.00,,,0.00,Wunderground v.1.15,2013-10-28 18:23:00,
2013-10-28 13:33:00,68.3,25.6,30.22,East,93,0.0,0.0,20,0.00,,,0.00,Wunderground v.1.15,2013-10-28 18:33:00,
2013-10-28 13:43:00,68.4,24.5,30.22,ESE,116,0.0,0.0,19,0.00,,,0.00,Wunderground v.1.15,2013-10-28 18:43:00,
2013-10-28 13:53:00,68.6,24.7,30.22,East,84,0.0,0.0,19,0.00,,,0.00,Wunderground v.1.15,2013-10-28 18:53:00,
2013-10-28 14:03:00,69.3,25.2,30.21,SE,127,0.0,0.0,19,0.00,,,0.00,Wunderground v.1.15,2013-10-28 19:03:00,
2013-10-28 14:13:00,69.9,23.1,30.22,ESE,119,0.0,0.0,17,0.00,,,0.00,Wunderground v.1.15,2013-10-28 19:13:00,
2013-10-28 14:23:00,69.6,25.5,30.21,SSE,150,0.0,0.0,19,0.00,,,0.00,Wunderground v.1.15,2013-10-28 19:23:00,
2013-10-28 14:33:00,70.1,21.8,30.21,SSE,160,0.0,0.0,16,0.00,,,0.00,Wunderground v.1.15,2013-10-28 19:33:00,
2013-10-28 14:43:00,70.1,21.8,30.21,ESE,114,0.0,0.0,16,0.00,,,0.00,Wunderground v.1.15,2013-10-28 19:43:00,
2013-10-28 14:53:00,70.3,21.9,30.21,ESE,107,0.0,0.0,16,0.00,,,0.00,Wunderground v.1.15,2013-10-28 19:53:00,
2013-10-28 15:03:00,69.9,24.4,30.21,ESE,104,0.0,0.0,18,0.00,,,0.00,Wunderground v.1.15,2013-10-28 20:03:00,
2013-10-28 15:13:00,69.3,21.1,30.21,South,179,0.0,0.0,16,0.00,,,0.00,Wunderground v.1.15,2013-10-28 20:13:00,
2013-10-28 15:23:00,69.1,21.0,30.21,South,169,0.0,0.0,16,0.00,,,0.00,Wunderground v.1.15,2013-10-28 20:23:00,
2013-10-28 15:33:00,69.3,23.9,30.21,South,169,0.0,0.0,18,0.00,,,0.00,Wunderground v.1.15,2013-10-28 20:33:00,
2013-10-28 15:43:00,68.9,22.2,30.22,East,98,0.0,0.0,17,0.00,,,0.00,Wunderground v.1.15,2013-10-28 20:43:00,
2013-10-28 15:53:00,68.1,20.2,30.22,SSE,155,0.0,0.0,16,0.00,,,0.00,Wunderground v.1.15,2013-10-28 20:53:00,
2013-10-28 16:03:00,66.8,20.5,30.22,SSE,155,0.0,0.0,17,0.00,,,0.00,Wunderground v.1.15,2013-10-28 21:03:00,
2013-10-28 16:13:00,66.3,20.1,30.23,SE,143,0.0,0.0,17,0.00,,,0.00,Wunderground v.1.15,2013-10-28 21:13:00,
2013-10-28 16:23:00,65.9,22.4,30.23,SE,143,0.0,0.0,19,0.00,,,0.00,Wunderground v.1.15,2013-10-28 21:23:00,
2013-10-28 16:33:00,65.2,21.9,30.23,SE,143,0.0,0.0,19,0.00,,,0.00,Wunderground v.1.15,2013-10-28 21:33:00,
2013-10-28 16:43:00,64.6,22.6,30.23,SE,143,0.0,0.0,20,0.00,,,0.00,Wunderground v.1.15,2013-10-28 21:43:00,
2013-10-28 16:53:00,63.8,20.7,30.23,SE,141,0.0,0.0,19,0.00,,,0.00,Wunderground v.1.15,2013-10-28 21:53:00,
2013-10-28 17:03:00,62.9,23.4,30.24,SE,141,0.0,0.0,22,0.00,,,0.00,Wunderground v.1.15,2013-10-28 22:03:00,
2013-10-28 17:13:00,61.9,22.6,30.24,SE,141,0.0,0.0,22,0.00,,,0.00,Wunderground v.1.15,2013-10-28 22:13:00,
2013-10-28 17:23:00,60.9,25.7,30.24,SE,141,0.0,0.0,26,0.00,,,0.00,Wunderground v.1.15,2013-10-28 22:23:00,
2013-10-28 17:33:00,59.6,25.5,30.24,SE,141,0.0,0.0,27,0.00,,,0.00,Wunderground v.1.15,2013-10-28 22:33:00,
2013-10-28 17:43:00,57.9,28.2,30.24,SE,141,0.0,0.0,32,0.00,,,0.00,Wunderground v.1.15,2013-10-28 22:43:00,
2013-10-28 17:53:00,55.1,29.3,30.25,SE,141,0.0,0.0,37,0.00,,,0.00,Wunderground v.1.15,2013-10-28 22:53:00,
2013-10-28 18:03:00,53.4,29.0,30.25,SE,141,0.0,0.0,39,0.00,,,0.00,Wunderground v.1.15,2013-10-28 23:03:00,
2013-10-28 18:13:00,52.7,29.0,30.25,SE,141,0.0,0.0,40,0.00,,,0.00,Wunderground v.1.15,2013-10-28 23:13:00,
2013-10-28 18:23:00,52.1,29.1,30.26,SE,141,0.0,0.0,41,0.00,,,0.00,Wunderground v.1.15,2013-10-28 23:23:00,
2013-10-28 18:33:00,51.6,28.6,30.26,SE,141,0.0,0.0,41,0.00,,,0.00,Wunderground v.1.15,2013-10-28 23:33:00,
2013-10-28 18:43:00,51.4,28.5,30.26,SE,141,0.0,0.0,41,0.00,,,0.00,Wunderground v.1.15,2013-10-28 23:43:00,
2013-10-28 18:53:00,51.1,28.8,30.27,SE,141,0.0,0.0,42,0.00,,,0.00,Wunderground v.1.15,2013-10-28 23:53:00,
2013-10-28 19:03:00,51.1,29.4,30.27,SE,141,0.0,0.0,43,0.00,,,0.00,Wunderground v.1.15,2013-10-29 00:03:00,
2013-10-28 19:13:00,51.4,29.6,30.28,SE,141,0.0,0.0,43,0.00,,,0.00,Wunderground v.1.15,2013-10-29 00:13:00,
2013-10-28 19:23:00,51.4,29.6,30.28,SE,139,0.0,0.0,43,0.00,,,0.00,Wunderground v.1.15,2013-10-29 00:23:00,
2013-10-28 19:33:00,51.4,30.2,30.28,SE,139,0.0,0.0,44,0.00,,,0.00,Wunderground v.1.15,2013-10-29 00:33:00,
2013-10-28 19:43:00,51.1,30.5,30.28,SE,139,0.0,0.0,45,0.00,,,0.00,Wunderground v.1.15,2013-10-29 00:43:00,
2013-10-28 19:53:00,50.9,30.8,30.28,East,94,0.0,0.0,46,0.00,,,0.00,Wunderground v.1.15,2013-10-29 00:53:00,
2013-10-28 20:03:00,50.8,30.7,30.29,East,94,0.0,0.0,46,0.00,,,0.00,Wunderground v.1.15,2013-10-29 01:03:00,
2013-10-28 20:13:00,50.3,31.3,30.29,East,93,0.0,0.0,48,0.00,,,0.00,Wunderground v.1.15,2013-10-29 01:13:00,
2013-10-28 20:23:00,49.9,31.5,30.29,East,93,0.0,0.0,49,0.00,,,0.00,Wunderground v.1.15,2013-10-29 01:23:00,
2013-10-28 20:33:00,49.1,31.7,30.29,East,93,0.0,0.0,51,0.00,,,0.00,Wunderground v.1.15,2013-10-29 01:33:00,
2013-10-28 20:43:00,48.5,31.7,30.29,East,93,0.0,0.0,52,0.00,,,0.00,Wunderground v.1.15,2013-10-29 01:43:00,
2013-10-28 20:53:00,48.5,32.1,30.29,East,93,0.0,0.0,53,0.00,,,0.00,Wunderground v.1.15,2013-10-29 01:53:00,
2013-10-28 21:03:00,48.5,32.1,30.29,ENE,75,0.0,0.0,53,0.00,,,0.00,Wunderground v.1.15,2013-10-29 02:03:00,
2013-10-28 21:13:00,48.5,32.1,30.30,ENE,67,0.0,0.0,53,0.00,,,0.00,Wunderground v.1.15,2013-10-29 02:13:00,
2013-10-28 21:23:00,48.5,34.4,30.29,ENE,73,0.0,0.0,58,0.00,,,0.00,Wunderground v.1.15,2013-10-29 02:23:00,
2013-10-28 21:32:00,48.5,36.9,30.30,ENE,75,0.0,0.0,64,0.00,,,0.00,Wunderground v.1.15,2013-10-29 02:32:00,
2013-10-28 21:43:00,48.4,38.3,30.30,East,82,0.0,0.0,68,0.00,,,0.00,Wunderground v.1.15,2013-10-29 02:43:00,
2013-10-28 21:53:00,48.4,39.4,30.31,ENE,74,0.0,0.0,71,0.00,,,0.00,Wunderground v.1.15,2013-10-29 02:53:00,
2013-10-28 22:03:00,48.2,39.6,30.31,East,80,0.0,0.0,72,0.00,,,0.00,Wunderground v.1.15,2013-10-29 03:03:00,
2013-10-28 22:13:00,48.1,39.9,30.31,East,80,0.0,0.0,73,0.00,,,0.00,Wunderground v.1.15,2013-10-29 03:13:00,
2013-10-28 22:23:00,47.8,39.9,30.31,ENE,67,0.0,0.0,74,0.00,,,0.00,Wunderground v.1.15,2013-10-29 03:23:00,
2013-10-28 22:33:00,47.8,40.3,30.31,East,79,0.0,0.0,75,0.00,,,0.00,Wunderground v.1.15,2013-10-29 03:33:00,
2013-10-28 22:43:00,47.7,40.5,30.31,ENE,77,0.0,0.0,76,0.00,,,0.00,Wunderground v.1.15,2013-10-29 03:43:00,
2013-10-28 22:53:00,47.4,40.2,30.31,East,80,0.0,0.0,76,0.00,,,0.00,Wunderground v.1.15,2013-10-29 03:53:00,
2013-10-28 23:03:00,47.1,40.3,30.31,East,83,0.0,0.0,77,0.00,,,0.00,Wunderground v.1.15,2013-10-29 04:03:00,
2013-10-28 23:07:00,46.9,40.1,30.31,ENE,75,0.0,0.0,77,0.00,,,0.00,Wunderground v.1.15,2013-10-29 04:07:00,
2013-10-28 23:13:00,46.8,40.0,30.31,ENE,69,0.0,0.0,77,0.00,,,0.00,Wunderground v.1.15,2013-10-29 04:13:00,
2013-10-28 23:23:00,46.6,40.1,30.31,ENE,77,0.0,0.0,78,0.00,,,0.00,Wunderground v.1.15,2013-10-29 04:23:00,
2013-10-28 23:33:00,46.2,40.0,30.31,East,79,0.0,0.0,79,0.00,,,0.00,Wunderground v.1.15,2013-10-29 04:33:00,
2013-10-28 23:37:00,46.2,40.0,30.31,East,80,0.0,0.0,79,0.00,,,0.00,Wunderground v.1.15,2013-10-29 04:37:00,
2013-10-28 23:43:00,46.1,39.9,30.31,ENE,72,0.0,0.0,79,0.00,,,0.00,Wunderground v.1.15,2013-10-29 04:43:00,
2013-10-28 23:53:00,45.9,40.1,30.31,ENE,74,0.0,0.0,80,0.00,,,0.00,Wunderground v.1.15,2013-10-29 04:53:00,